TimeCDT,TemperatureF,Dew PointF,Humidity,Sea Level PressureIn,VisibilityMPH,Wind Direction,Wind SpeedMPH,Gust SpeedMPH,PrecipitationIn,Events,Conditions,WindDirDegrees,DateUTC
12:58 AM,64.9,64.9,100,30.06,10.0,South,4.6,-,N/A,,Clear,170,2013-08-20 05:58:00
1:58 AM,65.7,65.7,100,30.04,9.0,SSE,3.5,-,N/A,,Clear,160,2013-08-20 06:58:00
2:58 AM,65.1,65.1,100,30.04,10.0,South,5.8,-,N/A,,Clear,180,2013-08-20 07:58:00
3:58 AM,65.3,65.3,100,30.03,10.0,South,8.1,-,N/A,,Clear,180,2013-08-20 08:58:00
5:55 AM,64.4,64.4,100,30.04,10.0,South,4.6,-,N/A,,Clear,180,2013-08-20 10:55:00
6:55 AM,64.0,64.0,100,30.05,10.0,SSW,5.8,-,N/A,,Clear,200,2013-08-20 11:55:00
7:58 AM,68.2,68.2,100,30.08,10.0,SSW,4.6,-,N/A,,Clear,200,2013-08-20 12:58:00
8:55 AM,73.0,72.9,99,30.08,10.0,South,6.9,-,N/A,,Clear,190,2013-08-20 13:55:00
9:56 AM,78.8,71.6,78,30.09,10.0,SSW,9.2,-,N/A,,Clear,200,2013-08-20 14:56:00
10:58 AM,81.7,68.9,65,30.09,10.0,SSW,9.2,-,N/A,,Clear,210,2013-08-20 15:58:00
11:58 AM,84.0,66.2,55,30.08,10.0,South,8.1,-,N/A,,Clear,180,2013-08-20 16:58:00
12:58 PM,85.5,66.4,53,30.06,10.0,SSW,8.1,-,N/A,,Clear,210,2013-08-20 17:58:00
1:58 PM,86.2,66.7,52,30.05,10.0,South,9.2,-,N/A,,Clear,170,2013-08-20 18:58:00
2:58 PM,86.2,67.5,53,30.04,10.0,SSE,6.9,-,N/A,,Partly Cloudy,150,2013-08-20 19:58:00
3:58 PM,86.4,68.4,55,30.03,10.0,South,6.9,-,N/A,,Scattered Clouds,190,2013-08-20 20:58:00
4:58 PM,86.5,67.1,52,30.03,10.0,South,5.8,-,N/A,,Partly Cloudy,190,2013-08-20 21:58:00
5:58 PM,84.7,68.0,57,30.02,10.0,South,5.8,-,N/A,,Partly Cloudy,190,2013-08-20 22:58:00
6:58 PM,82.8,68.2,61,30.01,10.0,South,8.1,-,N/A,,Clear,190,2013-08-20 23:58:00
7:58 PM,77.4,70.0,78,30.01,10.0,South,4.6,-,N/A,,Clear,170,2013-08-21 00:58:00
8:55 PM,75.2,69.8,83,30.03,10.0,South,4.6,-,N/A,,Clear,170,2013-08-21 01:55:00
8:58 PM,75.2,69.1,81,30.02,10.0,South,4.6,-,N/A,,Clear,170,2013-08-21 01:58:00
9:58 PM,72.7,69.3,89,30.05,10.0,South,5.8,-,N/A,,Clear,170,2013-08-21 02:58:00
10:58 PM,70.9,69.1,94,30.05,10.0,SSE,3.5,-,N/A,,Clear,160,2013-08-21 03:58:00
11:58 PM,69.3,68.9,99,30.06,10.0,SSE,3.5,-,N/A,,Clear,150,2013-08-21 04:58:00